Location: Caltech
(34.1382°N, 118.1253°W)
Time: 17:56:25
(UTC-07:00)

ERBS - Visible Passes

Search period start: 05 July 2015 00:00
Search period end: 15 July 2015 00:00
Orbit: 448 x 466 km, 57.0° (Epoch: 04 July)

Date Brightness Start Highest point End Pass type
(mag) Time Alt. Az. Time Alt. Az. Time Alt. Az.
05 Jul 4.3 03:41:08 20° SE 03:41:33 21° ESE 03:44:21 10° ENE visible
05 Jul 3.9 05:15:27 10° WSW 05:18:36 27° NW 05:21:43 10° NNE visible
06 Jul 5.1 03:07:33 14° ESE 03:07:33 14° ESE 03:08:45 10° E visible
06 Jul 3.3 04:41:18 18° WSW 04:43:34 38° NW 04:46:58 10° NNE visible
07 Jul 2.7 04:07:38 41° W 04:08:33 56° NW 04:12:07 10° NNE visible
08 Jul 2.6 03:33:54 71° NNE 03:33:54 71° NNE 03:37:11 10° NE visible
09 Jul 4.2 03:00:06 31° NE 03:00:06 31° NE 03:02:10 10° NE visible
09 Jul 5.0 04:34:29 10° WNW 04:36:07 12° NW 04:37:38 10° N visible
10 Jul 5.3 02:26:14 16° ENE 02:26:14 16° ENE 02:27:02 10° NE visible
10 Jul 4.6 03:59:59 15° WNW 04:00:57 16° NW 04:03:16 10° N visible
11 Jul 4.4 03:26:03 21° NW 03:26:03 21° NW 03:28:39 10° N visible
12 Jul 4.7 02:52:03 22° N 02:52:03 22° N 02:53:53 10° NNE visible
13 Jul 5.3 02:18:01 17° NNE 02:18:01 17° NNE 02:19:01 10° NNE visible
14 Jul 5.8 01:43:55 11° NNE 01:43:55 11° NNE 01:44:05 10° NNE visible
